Location: Kawakawa
(35.3830°S, 174.0670°E)
Time: 07:24:32
(UTC+13:00)

Altair - Pass Details

Date: 10 December 2019
Orbit: 1502 x 1682 km, 47.2° (Epoch: 19 January)

Event Time Altitude Azimuth Distance (km) Brightness Sun altitude
Rises 11:12:55 0° 290° (WNW) 4,774 9.8 60.5°
Reaches altitude 10° 11:16:01 10° 286° (WNW) 3,817 9.4 61.1°
Maximum altitude 11:25:42 62° 206° (SSW) 1,823 8.6 63.0°
Drops below altitude 10° 11:35:46 10° 125° (SE) 3,951 10.0 64.9°
Sets 11:39:04 0° 121° (ESE) 4,950 10.4 65.5°
